Hourly Weather Barra do Pirai

Today, 21 April, Wednesday

Time Temperature Precipitation Wind Pressure Humidity
00:00 +16°C° 0 mm 1 mps 727 mmHg 97%
01:00 +16°C° 0 mm 1 mps 727 mmHg 97%
02:00 +16°C° 0 mm 1 mps 727 mmHg 97%
03:00 +15°C° 0 mm 1 mps 726 mmHg 97%
04:00 +15°C° 0 mm 1 mps 726 mmHg 96%
05:00 +15°C° 0 mm 1 mps 726 mmHg 96%
06:00 +15°C° 0 mm 1 mps 726 mmHg 96%
07:00 +18°C° 0 mm 1 mps 727 mmHg 87%
08:00 +19°C° 0 mm 2 mps 728 mmHg 78%
09:00 +21°C° 0 mm 2 mps 728 mmHg 69%
10:00 +24°C° 0 mm 2 mps 728 mmHg 67%
11:00 +25°C° 0 mm 3 mps 728 mmHg 65%
12:00 +26°C° 0 mm 3 mps 727 mmHg 62%
13:00 +26°C° 0.5 mm 3 mps 727 mmHg 66%
14:00 +25°C° 0.5 mm 3 mps 727 mmHg 70%
15:00 +25°C° 0.5 mm 3 mps 726 mmHg 74%
16:00 +23°C° 0.3 mm 2 mps 727 mmHg 81%
17:00 +22°C° 0.3 mm 1 mps 727 mmHg 88%
18:00 +20°C° 0.3 mm 1 mps 727 mmHg 95%
19:00 +20°C° 0.2 mm 1 mps 727 mmHg 96%
20:00 +19°C° 0.2 mm 1 mps 728 mmHg 97%
21:00 +19°C° 0.2 mm 1 mps 728 mmHg 98%
22:00 +19°C° 0.2 mm 1 mps 728 mmHg 98%
23:00 +19°C° 0.2 mm 1 mps 728 mmHg 98%

Tomorrow, 22 April, Thursday

Time Temperature Precipitation Wind Pressure Humidity
00:00 +19°C° 0.2 mm 1 mps 728 mmHg 98%
01:00 +19°C° 0.1 mm 1 mps 728 mmHg 98%
02:00 +19°C° 0.1 mm 1 mps 728 mmHg 98%
03:00 +18°C° 0.1 mm 1 mps 727 mmHg 98%
04:00 +18°C° 0.1 mm 1 mps 727 mmHg 98%
05:00 +18°C° 0.1 mm 1 mps 728 mmHg 98%
06:00 +18°C° 0.1 mm 1 mps 728 mmHg 98%
07:00 +19°C° 0.1 mm 1 mps 728 mmHg 94%
08:00 +21°C° 0.1 mm 1 mps 729 mmHg 90%
09:00 +22°C° 0.1 mm 1 mps 729 mmHg 86%
10:00 +22°C° 0.4 mm 1 mps 729 mmHg 82%
11:00 +23°C° 0.4 mm 2 mps 729 mmHg 79%
12:00 +24°C° 0.4 mm 2 mps 728 mmHg 76%
13:00 +24°C° 0.4 mm 2 mps 728 mmHg 75%
14:00 +24°C° 0.4 mm 2 mps 728 mmHg 75%
15:00 +24°C° 0.4 mm 3 mps 727 mmHg 74%
16:00 +21°C° 0.1 mm 2 mps 727 mmHg 81%
17:00 +20°C° 0.1 mm 2 mps 728 mmHg 88%
18:00 +19°C° 0.1 mm 1 mps 728 mmHg 95%
19:00 +19°C° 0 mm 1 mps 728 mmHg 96%
20:00 +16°C° 0 mm 0 mps 728 mmHg 97%
21:00 +16°C° 0 mm 0 mps 729 mmHg 98%
22:00 +16°C° 0 mm 0 mps 729 mmHg 98%
23:00 +15°C° 0 mm 0 mps 729 mmHg 98%

Day after tomorrow, 23 April, Friday

Time Temperature Precipitation Wind Pressure Humidity
00:00 +15°C° 0 mm 0 mps 729 mmHg 98%
01:00 +15°C° 0 mm 0 mps 728 mmHg 98%
02:00 +15°C° 0 mm 0 mps 728 mmHg 97%
03:00 +15°C° 0 mm 0 mps 728 mmHg 97%
04:00 +14°C° 0 mm 0 mps 728 mmHg 97%
05:00 +14°C° 0 mm 0 mps 728 mmHg 97%
06:00 +15°C° 0 mm 1 mps 728 mmHg 97%
07:00 +18°C° 0 mm 1 mps 729 mmHg 91%
08:00 +20°C° 0 mm 1 mps 729 mmHg 85%
09:00 +22°C° 0 mm 1 mps 729 mmHg 78%
10:00 +23°C° 0 mm 1 mps 729 mmHg 72%
11:00 +25°C° 0 mm 1 mps 728 mmHg 65%
12:00 +26°C° 0 mm 1 mps 728 mmHg 58%
13:00 +26°C° 0 mm 1 mps 727 mmHg 60%
14:00 +26°C° 0 mm 1 mps 727 mmHg 62%
15:00 +25°C° 0 mm 2 mps 726 mmHg 65%
16:00 +24°C° 0 mm 2 mps 726 mmHg 73%
17:00 +21°C° 0 mm 2 mps 727 mmHg 81%
18:00 +20°C° 0 mm 1 mps 727 mmHg 89%
19:00 +19°C° 0 mm 1 mps 727 mmHg 91%
20:00 +19°C° 0 mm 1 mps 728 mmHg 93%
21:00 +16°C° 0 mm 0 mps 728 mmHg 94%
22:00 +16°C° 0 mm 0 mps 728 mmHg 94%
23:00 +17°C° 0 mm 0 mps 728 mmHg 93%

24 April, Saturday

Time Temperature Precipitation Wind Pressure Humidity
00:00 +17°C° 0 mm 0 mps 728 mmHg 93%
01:00 +17°C° 0 mm 0 mps 727 mmHg 92%
02:00 +17°C° 0 mm 0 mps 727 mmHg 92%
03:00 +17°C° 0 mm 0 mps 727 mmHg 92%
04:00 +17°C° 0 mm 0 mps 727 mmHg 93%
05:00 +17°C° 0 mm 0 mps 727 mmHg 94%
06:00 +16°C° 0 mm 0 mps 727 mmHg 95%
07:00 +20°C° 0 mm 1 mps 728 mmHg 89%
08:00 +21°C° 0 mm 1 mps 728 mmHg 82%
09:00 +23°C° 0 mm 1 mps 728 mmHg 76%
10:00 +25°C° 0 mm 1 mps 728 mmHg 71%
11:00 +26°C° 0 mm 1 mps 727 mmHg 65%
12:00 +28°C° 0 mm 1 mps 727 mmHg 59%
13:00 +28°C° 0 mm 1 mps 726 mmHg 58%
14:00 +28°C° 0 mm 1 mps 725 mmHg 57%
15:00 +29°C° 0 mm 1 mps 725 mmHg 55%
16:00 +26°C° 0 mm 1 mps 725 mmHg 68%
17:00 +24°C° 0 mm 1 mps 725 mmHg 81%
18:00 +21°C° 0 mm 1 mps 725 mmHg 93%
19:00 +21°C° 0 mm 1 mps 726 mmHg 95%
20:00 +20°C° 0 mm 1 mps 726 mmHg 96%
21:00 +18°C° 0 mm 0 mps 727 mmHg 97%
22:00 +18°C° 0 mm 0 mps 727 mmHg 96%
23:00 +18°C° 0 mm 0 mps 726 mmHg 96%

25 April, Sunday

Time Temperature Precipitation Wind Pressure Humidity
00:00 +18°C° 0 mm 0 mps 726 mmHg 96%
01:00 +18°C° 0 mm 0 mps 726 mmHg 95%
02:00 +18°C° 0 mm 0 mps 726 mmHg 95%
03:00 +18°C° 0 mm 0 mps 726 mmHg 94%
04:00 +18°C° 0 mm 0 mps 726 mmHg 94%
05:00 +20°C° 0 mm 1 mps 726 mmHg 94%
06:00 +20°C° 0 mm 1 mps 726 mmHg 94%
07:00 +21°C° 0 mm 1 mps 726 mmHg 87%
08:00 +23°C° 0 mm 1 mps 726 mmHg 81%
09:00 +25°C° 0 mm 1 mps 726 mmHg 74%
10:00 +26°C° 0 mm 1 mps 726 mmHg 68%
11:00 +28°C° 0 mm 1 mps 726 mmHg 61%
12:00 +30°C° 0 mm 1 mps 726 mmHg 54%
13:00 +30°C° 0 mm 1 mps 725 mmHg 53%
14:00 +30°C° 0 mm 1 mps 725 mmHg 52%
15:00 +31°C° 0 mm 1 mps 724 mmHg 52%
16:00 +28°C° 0.1 mm 1 mps 724 mmHg 64%
17:00 +25°C° 0.1 mm 1 mps 724 mmHg 77%
18:00 +23°C° 0.1 mm 1 mps 724 mmHg 90%
19:00 +22°C° 0.2 mm 1 mps 725 mmHg 92%
20:00 +21°C° 0.2 mm 1 mps 725 mmHg 94%
21:00 +19°C° 0.2 mm 0 mps 725 mmHg 96%
22:00 +19°C° 0.2 mm 0 mps 725 mmHg 96%
23:00 +19°C° 0.2 mm 0 mps 725 mmHg 97%

26 April, Monday

Time Temperature Precipitation Wind Pressure Humidity
00:00 +18°C° 0.2 mm 0 mps 725 mmHg 97%
01:00 +18°C° 0.2 mm 0 mps 725 mmHg 97%
02:00 +18°C° 0.2 mm 0 mps 725 mmHg 97%
03:00 +18°C° 0.2 mm 0 mps 724 mmHg 97%
04:00 +18°C° 0 mm 0 mps 724 mmHg 97%
05:00 +18°C° 0 mm 0 mps 725 mmHg 97%
06:00 +18°C° 0 mm 0 mps 725 mmHg 97%
07:00 +19°C° 0 mm 0 mps 725 mmHg 93%
08:00 +20°C° 0 mm 0 mps 726 mmHg 89%
09:00 +22°C° 0 mm 0 mps 726 mmHg 85%
10:00 +23°C° 0 mm 0 mps 726 mmHg 77%
11:00 +27°C° 0 mm 1 mps 726 mmHg 68%
12:00 +29°C° 0 mm 1 mps 726 mmHg 60%
13:00 +28°C° 0.2 mm 2 mps 725 mmHg 67%
14:00 +27°C° 0.2 mm 2 mps 725 mmHg 74%
15:00 +26°C° 0.2 mm 3 mps 725 mmHg 81%
16:00 +24°C° 0.8 mm 2 mps 726 mmHg 86%
17:00 +23°C° 0.8 mm 2 mps 726 mmHg 92%
18:00 +20°C° 0.8 mm 2 mps 727 mmHg 97%
19:00 +21°C° 0.2 mm 1 mps 727 mmHg 97%
20:00 +21°C° 0.2 mm 1 mps 728 mmHg 98%
21:00 +21°C° 0.2 mm 1 mps 728 mmHg 98%
22:00 +21°C° 0.1 mm 1 mps 728 mmHg 98%
23:00 +21°C° 0.1 mm 1 mps 729 mmHg 98%
Show more